When you browse on this site, cookies collect data to enhance your experience and personalize the content and advertising you see.
Visit our Privacy Policy to learn more. By continuing to use the site, you agree to this use of cookies and data.
  • In Hungary
  • List of Countries
  • For 7 days
  • Water Temperature
  • Weather Map
  • News
  • Weather Widgets
  • user-avatar
    Login

    Hourly Weather Chivor

    Today, 10 April, Friday

    Time Temperature Precipitation Wind Pressure Humidity
    00:00 +16°C° 0 mm 1 mps 616 mmHg 91%
    01:00 +16°C° 0 mm 1 mps 616 mmHg 90%
    02:00 +16°C° 0 mm 1 mps 616 mmHg 89%
    03:00 +16°C° 0 mm 1 mps 616 mmHg 87%
    04:00 +18°C° 0 mm 1 mps 615 mmHg 85%
    05:00 +16°C° 0.1 mm 0 mps 616 mmHg 85%
    06:00 +16°C° 0.1 mm 0 mps 617 mmHg 85%
    07:00 +16°C° 0.1 mm 0 mps 617 mmHg 86%
    08:00 +20°C° 0.2 mm 1 mps 618 mmHg 82%
    09:00 +21°C° 0.2 mm 1 mps 618 mmHg 78%
    10:00 +23°C° 0.2 mm 1 mps 619 mmHg 75%
    11:00 +23°C° 1 mm 1 mps 618 mmHg 77%
    12:00 +23°C° 1 mm 1 mps 618 mmHg 80%
    13:00 +23°C° 1 mm 2 mps 617 mmHg 83%
    14:00 +22°C° 1.1 mm 1 mps 617 mmHg 86%
    15:00 +21°C° 1.1 mm 1 mps 616 mmHg 89%
    16:00 +21°C° 1.1 mm 1 mps 615 mmHg 92%
    17:00 +20°C° 0.8 mm 1 mps 616 mmHg 94%
    18:00 +19°C° 0.8 mm 1 mps 616 mmHg 96%
    19:00 +16°C° 0.8 mm 0 mps 616 mmHg 99%
    20:00 +16°C° 0.2 mm 0 mps 616 mmHg 98%
    21:00 +16°C° 0.2 mm 0 mps 617 mmHg 97%
    22:00 +18°C° 0.2 mm 1 mps 617 mmHg 96%
    23:00 +18°C° 0.3 mm 1 mps 617 mmHg 95%

    Tomorrow, 11 April, Saturday

    Time Temperature Precipitation Wind Pressure Humidity
    00:00 +18°C° 0.3 mm 1 mps 616 mmHg 94%
    01:00 +18°C° 0.3 mm 1 mps 616 mmHg 93%
    02:00 +18°C° 0.2 mm 1 mps 616 mmHg 93%
    03:00 +18°C° 0.2 mm 1 mps 616 mmHg 93%
    04:00 +15°C° 0.2 mm 0 mps 616 mmHg 93%
    05:00 +16°C° 0.1 mm 0 mps 616 mmHg 93%
    06:00 +16°C° 0.1 mm 0 mps 617 mmHg 92%
    07:00 +16°C° 0.1 mm 0 mps 617 mmHg 91%
    08:00 +17°C° 0.4 mm 0 mps 618 mmHg 90%
    09:00 +20°C° 0.4 mm 1 mps 618 mmHg 89%
    10:00 +20°C° 0.4 mm 1 mps 619 mmHg 88%
    11:00 +21°C° 0.4 mm 1 mps 618 mmHg 86%
    12:00 +21°C° 0.4 mm 1 mps 618 mmHg 84%
    13:00 +21°C° 0.4 mm 1 mps 617 mmHg 82%
    14:00 +22°C° 0.2 mm 1 mps 617 mmHg 79%
    15:00 +22°C° 0.2 mm 1 mps 616 mmHg 76%
    16:00 +23°C° 0.2 mm 1 mps 616 mmHg 73%
    17:00 +21°C° 0.1 mm 1 mps 616 mmHg 81%
    18:00 +19°C° 0.1 mm 1 mps 616 mmHg 89%
    19:00 +16°C° 0.1 mm 0 mps 616 mmHg 96%
    20:00 +15°C° 0.2 mm 0 mps 616 mmHg 96%
    21:00 +16°C° 0.2 mm 1 mps 617 mmHg 95%
    22:00 +16°C° 0.2 mm 1 mps 617 mmHg 95%
    23:00 +16°C° 0.2 mm 1 mps 617 mmHg 93%

    Day after tomorrow, 12 April, Sunday

    Time Temperature Precipitation Wind Pressure Humidity
    00:00 +16°C° 0.2 mm 1 mps 616 mmHg 92%
    01:00 +16°C° 0.2 mm 1 mps 616 mmHg 90%
    02:00 +16°C° 0 mm 1 mps 616 mmHg 90%
    03:00 +16°C° 0 mm 1 mps 616 mmHg 90%
    04:00 +16°C° 0 mm 1 mps 616 mmHg 90%
    05:00 +16°C° 0 mm 1 mps 616 mmHg 88%
    06:00 +18°C° 0 mm 1 mps 617 mmHg 86%
    07:00 +18°C° 0 mm 1 mps 617 mmHg 84%
    08:00 +21°C° 0 mm 1 mps 618 mmHg 74%
    09:00 +23°C° 0 mm 1 mps 620 mmHg 63%
    10:00 +25°C° 0 mm 1 mps 621 mmHg 53%
    11:00 +25°C° 0.1 mm 2 mps 620 mmHg 54%
    12:00 +25°C° 0.1 mm 2 mps 619 mmHg 56%
    13:00 +25°C° 0.1 mm 2 mps 618 mmHg 58%
    14:00 +24°C° 0.5 mm 2 mps 617 mmHg 65%
    15:00 +23°C° 0.5 mm 2 mps 617 mmHg 73%
    16:00 +22°C° 0.5 mm 1 mps 616 mmHg 80%
    17:00 +21°C° 0.3 mm 1 mps 616 mmHg 84%
    18:00 +20°C° 0.3 mm 1 mps 616 mmHg 88%
    19:00 +17°C° 0.3 mm 0 mps 616 mmHg 91%
    20:00 +17°C° 0.4 mm 0 mps 617 mmHg 92%
    21:00 +16°C° 0.4 mm 0 mps 617 mmHg 93%
    22:00 +18°C° 0.4 mm 1 mps 618 mmHg 94%
    23:00 +18°C° 0.3 mm 1 mps 617 mmHg 94%

    13 April, Monday

    Time Temperature Precipitation Wind Pressure Humidity
    00:00 +18°C° 0.3 mm 1 mps 617 mmHg 94%
    01:00 +18°C° 0.3 mm 1 mps 617 mmHg 94%
    02:00 +18°C° 0 mm 1 mps 617 mmHg 93%
    03:00 +16°C° 0 mm 1 mps 616 mmHg 93%
    04:00 +16°C° 0 mm 1 mps 616 mmHg 92%
    05:00 +18°C° 0 mm 1 mps 616 mmHg 90%
    06:00 +18°C° 0 mm 1 mps 617 mmHg 89%
    07:00 +18°C° 0 mm 1 mps 617 mmHg 87%
    08:00 +20°C° 0.1 mm 1 mps 618 mmHg 78%
    09:00 +22°C° 0.1 mm 1 mps 619 mmHg 68%
    10:00 +24°C° 0.1 mm 1 mps 620 mmHg 59%
    11:00 +24°C° 0.1 mm 2 mps 619 mmHg 60%
    12:00 +23°C° 0.1 mm 2 mps 619 mmHg 61%
    13:00 +23°C° 0.1 mm 2 mps 618 mmHg 61%
    14:00 +23°C° 0 mm 2 mps 617 mmHg 64%
    15:00 +22°C° 0 mm 1 mps 617 mmHg 66%
    16:00 +22°C° 0 mm 1 mps 616 mmHg 69%
    17:00 +21°C° 0 mm 1 mps 616 mmHg 75%
    18:00 +19°C° 0 mm 1 mps 616 mmHg 80%
    19:00 +16°C° 0 mm 0 mps 616 mmHg 86%
    20:00 +16°C° 0 mm 0 mps 616 mmHg 86%
    21:00 +18°C° 0 mm 1 mps 617 mmHg 86%
    22:00 +16°C° 0 mm 1 mps 617 mmHg 87%
    23:00 +16°C° 0 mm 1 mps 617 mmHg 87%

    14 April, Tuesday

    Time Temperature Precipitation Wind Pressure Humidity
    00:00 +16°C° 0 mm 1 mps 616 mmHg 87%
    01:00 +16°C° 0 mm 1 mps 616 mmHg 87%
    02:00 +16°C° 0 mm 1 mps 616 mmHg 87%
    03:00 +15°C° 0 mm 1 mps 615 mmHg 87%
    04:00 +15°C° 0 mm 1 mps 615 mmHg 87%
    05:00 +16°C° 0 mm 1 mps 616 mmHg 84%
    06:00 +18°C° 0 mm 1 mps 616 mmHg 81%
    07:00 +19°C° 0 mm 1 mps 617 mmHg 78%
    08:00 +21°C° 0 mm 1 mps 618 mmHg 69%
    09:00 +23°C° 0 mm 1 mps 619 mmHg 59%
    10:00 +26°C° 0 mm 2 mps 620 mmHg 50%
    11:00 +25°C° 0.1 mm 2 mps 619 mmHg 53%
    12:00 +25°C° 0.1 mm 2 mps 618 mmHg 56%
    13:00 +24°C° 0.1 mm 2 mps 617 mmHg 59%
    14:00 +23°C° 0.2 mm 2 mps 617 mmHg 62%
    15:00 +23°C° 0.2 mm 1 mps 616 mmHg 66%
    16:00 +22°C° 0.2 mm 1 mps 615 mmHg 69%
    17:00 +21°C° 0 mm 1 mps 615 mmHg 73%
    18:00 +19°C° 0 mm 1 mps 615 mmHg 77%
    19:00 +16°C° 0 mm 0 mps 615 mmHg 81%
    20:00 +16°C° 0 mm 0 mps 615 mmHg 83%
    21:00 +16°C° 0 mm 1 mps 616 mmHg 85%
    22:00 +16°C° 0 mm 1 mps 616 mmHg 86%
    23:00 +16°C° 0 mm 1 mps 616 mmHg 86%

    15 April, Wednesday

    Time Temperature Precipitation Wind Pressure Humidity
    00:00 +15°C° 0 mm 1 mps 615 mmHg 87%
    01:00 +15°C° 0 mm 1 mps 615 mmHg 87%
    02:00 +15°C° 0 mm 1 mps 615 mmHg 86%
    03:00 +15°C° 0 mm 1 mps 615 mmHg 86%
    04:00 +15°C° 0 mm 1 mps 615 mmHg 85%
    05:00 +16°C° 0 mm 1 mps 615 mmHg 82%
    06:00 +16°C° 0 mm 1 mps 616 mmHg 79%
    07:00 +18°C° 0 mm 1 mps 617 mmHg 76%
    08:00 +20°C° 0 mm 1 mps 618 mmHg 68%
    09:00 +23°C° 0 mm 1 mps 618 mmHg 59%
    10:00 +25°C° 0 mm 1 mps 619 mmHg 51%
    11:00 +25°C° 0.1 mm 2 mps 619 mmHg 54%
    12:00 +25°C° 0.1 mm 2 mps 618 mmHg 56%
    13:00 +24°C° 0.1 mm 2 mps 617 mmHg 59%
    14:00 +23°C° 0.2 mm 2 mps 617 mmHg 66%
    15:00 +22°C° 0.2 mm 1 mps 616 mmHg 72%
    16:00 +21°C° 0.2 mm 1 mps 615 mmHg 79%
    17:00 +20°C° 0.1 mm 1 mps 615 mmHg 81%
    18:00 +19°C° 0.1 mm 1 mps 616 mmHg 83%
    19:00 +19°C° 0.1 mm 1 mps 616 mmHg 85%
    20:00 +18°C° 0 mm 1 mps 616 mmHg 85%
    21:00 +18°C° 0 mm 1 mps 616 mmHg 85%
    22:00 +18°C° 0 mm 1 mps 617 mmHg 85%
    23:00 +18°C° 0 mm 1 mps 617 mmHg 84%
    Show more